Zurück zum Katalog

STARLINK-35720

AktivKommunikationVLEO
NORAD 67052·PAYLOAD·🇺🇸 United States

Gestartet Dec 11, 2025 von Cape Canaveral Space Force Station

Loading…

Nächste Überflüge (nächste 24 Stunden)

TLE

AktuellSource: CelesTrak SupGP

Epoche: Sep 14, 2026, 20:49 UTC

1 67052C 25294Y   26257.86784722  .00047389  00000+0  17167-2 0  2579
2 67052  43.0043  49.5977 0001542 274.4989  50.3704 15.27549419    19

Verfolge STARLINK-35720 in Echtzeit mit AllMySat

Download on the App Store